EN

Hourly Weather Alpuyeca

Today, 23 January, Saturday

Time Temperature Precipitation Wind Pressure Humidity
00:00 +23°C° 0 mm 1 mps 674 mmHg 52%
01:00 +22°C° 0 mm 1 mps 674 mmHg 53%
02:00 +20°C° 0 mm 0 mps 674 mmHg 54%
03:00 +20°C° 0 mm 0 mps 674 mmHg 56%
04:00 +19°C° 0 mm 0 mps 674 mmHg 57%
05:00 +19°C° 0 mm 0 mps 674 mmHg 58%
06:00 +20°C° 0 mm 0 mps 675 mmHg 55%
07:00 +22°C° 0 mm 0 mps 675 mmHg 51%
08:00 +23°C° 0 mm 0 mps 676 mmHg 48%
09:00 +26°C° 0 mm 0 mps 676 mmHg 43%
10:00 +30°C° 0 mm 1 mps 676 mmHg 37%
11:00 +33°C° 0 mm 1 mps 676 mmHg 32%
12:00 +33°C° 0 mm 1 mps 676 mmHg 31%
13:00 +33°C° 0 mm 1 mps 675 mmHg 29%
14:00 +34°C° 0 mm 1 mps 674 mmHg 28%
15:00 +32°C° 0 mm 1 mps 674 mmHg 31%
16:00 +30°C° 0 mm 1 mps 674 mmHg 35%
17:00 +29°C° 0 mm 1 mps 673 mmHg 38%
18:00 +28°C° 0 mm 1 mps 674 mmHg 41%
19:00 +26°C° 0 mm 1 mps 674 mmHg 44%
20:00 +25°C° 0 mm 1 mps 674 mmHg 46%
21:00 +25°C° 0 mm 1 mps 674 mmHg 48%
22:00 +24°C° 0 mm 1 mps 674 mmHg 49%
23:00 +22°C° 0 mm 0 mps 674 mmHg 50%

Tomorrow, 24 January, Sunday

Time Temperature Precipitation Wind Pressure Humidity
00:00 +21°C° 0 mm 0 mps 674 mmHg 52%
01:00 +21°C° 0 mm 0 mps 674 mmHg 54%
02:00 +21°C° 0 mm 0 mps 674 mmHg 56%
03:00 +20°C° 0 mm 0 mps 674 mmHg 57%
04:00 +20°C° 0 mm 0 mps 674 mmHg 58%
05:00 +20°C° 0 mm 0 mps 674 mmHg 59%
06:00 +21°C° 0 mm 0 mps 674 mmHg 57%
07:00 +22°C° 0 mm 0 mps 675 mmHg 55%
08:00 +23°C° 0 mm 0 mps 675 mmHg 53%
09:00 +25°C° 0 mm 0 mps 675 mmHg 47%
10:00 +29°C° 0 mm 1 mps 676 mmHg 42%
11:00 +32°C° 0 mm 1 mps 676 mmHg 36%
12:00 +32°C° 0 mm 1 mps 675 mmHg 34%
13:00 +33°C° 0 mm 1 mps 674 mmHg 31%
14:00 +34°C° 0 mm 1 mps 674 mmHg 28%
15:00 +32°C° 0 mm 1 mps 673 mmHg 31%
16:00 +30°C° 0 mm 1 mps 673 mmHg 33%
17:00 +29°C° 0 mm 1 mps 673 mmHg 36%
18:00 +27°C° 0 mm 1 mps 673 mmHg 40%
19:00 +26°C° 0 mm 1 mps 674 mmHg 44%
20:00 +24°C° 0 mm 1 mps 674 mmHg 49%
21:00 +24°C° 0 mm 1 mps 674 mmHg 52%
22:00 +23°C° 0 mm 1 mps 674 mmHg 55%
23:00 +22°C° 0 mm 1 mps 674 mmHg 57%

Day after tomorrow, 25 January, Monday

Time Temperature Precipitation Wind Pressure Humidity
00:00 +22°C° 0 mm 1 mps 674 mmHg 59%
01:00 +19°C° 0 mm 0 mps 674 mmHg 61%
02:00 +19°C° 0 mm 0 mps 673 mmHg 63%
03:00 +18°C° 0 mm 0 mps 673 mmHg 64%
04:00 +18°C° 0 mm 0 mps 673 mmHg 65%
05:00 +18°C° 0 mm 0 mps 673 mmHg 66%
06:00 +19°C° 0 mm 0 mps 674 mmHg 61%
07:00 +21°C° 0 mm 0 mps 675 mmHg 56%
08:00 +22°C° 0 mm 0 mps 675 mmHg 51%
09:00 +25°C° 0 mm 0 mps 675 mmHg 46%
10:00 +29°C° 0 mm 1 mps 675 mmHg 41%
11:00 +31°C° 0 mm 1 mps 675 mmHg 35%
12:00 +32°C° 0 mm 1 mps 675 mmHg 33%
13:00 +32°C° 0 mm 1 mps 674 mmHg 30%
14:00 +33°C° 0 mm 1 mps 673 mmHg 28%
15:00 +31°C° 0 mm 1 mps 673 mmHg 31%
16:00 +30°C° 0 mm 1 mps 673 mmHg 34%
17:00 +29°C° 0 mm 1 mps 673 mmHg 37%
18:00 +27°C° 0 mm 1 mps 673 mmHg 40%
19:00 +26°C° 0 mm 1 mps 674 mmHg 44%
20:00 +24°C° 0 mm 1 mps 674 mmHg 48%
21:00 +23°C° 0 mm 1 mps 674 mmHg 50%
22:00 +23°C° 0 mm 1 mps 674 mmHg 52%
23:00 +22°C° 0 mm 1 mps 674 mmHg 54%

26 January, Tuesday

Time Temperature Precipitation Wind Pressure Humidity
00:00 +20°C° 0 mm 0 mps 674 mmHg 56%
01:00 +19°C° 0 mm 0 mps 674 mmHg 58%
02:00 +19°C° 0 mm 0 mps 674 mmHg 59%
03:00 +18°C° 0 mm 0 mps 673 mmHg 61%
04:00 +18°C° 0 mm 0 mps 673 mmHg 63%
05:00 +18°C° 0 mm 0 mps 673 mmHg 65%
06:00 +19°C° 0 mm 0 mps 674 mmHg 60%
07:00 +21°C° 0 mm 0 mps 675 mmHg 56%
08:00 +22°C° 0 mm 0 mps 675 mmHg 51%
09:00 +25°C° 0 mm 0 mps 675 mmHg 45%
10:00 +29°C° 0 mm 1 mps 676 mmHg 40%
11:00 +31°C° 0 mm 1 mps 676 mmHg 34%
12:00 +32°C° 0 mm 1 mps 675 mmHg 32%
13:00 +32°C° 0 mm 2 mps 674 mmHg 31%
14:00 +32°C° 0 mm 2 mps 673 mmHg 29%
15:00 +31°C° 0 mm 1 mps 673 mmHg 32%
16:00 +30°C° 0 mm 1 mps 673 mmHg 35%
17:00 +29°C° 0 mm 1 mps 673 mmHg 38%
18:00 +27°C° 0 mm 1 mps 674 mmHg 42%
19:00 +26°C° 0 mm 1 mps 674 mmHg 45%
20:00 +24°C° 0 mm 1 mps 674 mmHg 49%
21:00 +23°C° 0 mm 1 mps 674 mmHg 51%
22:00 +23°C° 0 mm 1 mps 674 mmHg 52%
23:00 +22°C° 0 mm 1 mps 674 mmHg 54%

27 January, Wednesday

Time Temperature Precipitation Wind Pressure Humidity
00:00 +22°C° 0 mm 1 mps 674 mmHg 56%
01:00 +19°C° 0 mm 0 mps 674 mmHg 57%
02:00 +19°C° 0 mm 0 mps 674 mmHg 58%
03:00 +18°C° 0 mm 0 mps 674 mmHg 58%
04:00 +18°C° 0 mm 0 mps 674 mmHg 59%
05:00 +18°C° 0 mm 0 mps 674 mmHg 60%
06:00 +19°C° 0 mm 0 mps 675 mmHg 55%
07:00 +21°C° 0 mm 0 mps 676 mmHg 51%
08:00 +23°C° 0 mm 0 mps 676 mmHg 46%
09:00 +25°C° 0 mm 0 mps 677 mmHg 41%
10:00 +30°C° 0 mm 1 mps 677 mmHg 36%
11:00 +32°C° 0 mm 1 mps 677 mmHg 31%
12:00 +33°C° 0 mm 1 mps 676 mmHg 30%
13:00 +34°C° 0 mm 1 mps 675 mmHg 29%
14:00 +34°C° 0 mm 1 mps 675 mmHg 27%
15:00 +33°C° 0 mm 1 mps 674 mmHg 31%
16:00 +31°C° 0 mm 1 mps 674 mmHg 34%
17:00 +30°C° 0 mm 1 mps 674 mmHg 38%
18:00 +28°C° 0.2 mm 1 mps 675 mmHg 42%
19:00 +26°C° 0.2 mm 1 mps 675 mmHg 47%
20:00 +25°C° 0.2 mm 1 mps 676 mmHg 52%
21:00 +25°C° 0 mm 1 mps 676 mmHg 52%
22:00 +25°C° 0 mm 1 mps 676 mmHg 52%
23:00 +23°C° 0 mm 0 mps 677 mmHg 52%

28 January, Thursday

Time Temperature Precipitation Wind Pressure Humidity
00:00 +22°C° 0 mm 0 mps 676 mmHg 55%
01:00 +22°C° 0 mm 0 mps 676 mmHg 57%
02:00 +21°C° 0 mm 0 mps 676 mmHg 59%
03:00 +21°C° 0 mm 0 mps 676 mmHg 61%
04:00 +20°C° 0 mm 0 mps 676 mmHg 62%
05:00 +20°C° 0 mm 0 mps 676 mmHg 64%
06:00 +21°C° 0 mm 0 mps 677 mmHg 60%
07:00 +22°C° 0 mm 0 mps 677 mmHg 57%
08:00 +23°C° 0 mm 0 mps 678 mmHg 53%
09:00 +25°C° 0 mm 0 mps 678 mmHg 47%
10:00 +30°C° 0 mm 1 mps 678 mmHg 42%
11:00 +32°C° 0 mm 1 mps 678 mmHg 36%
Show more